Regional Weather Roundup
Issued by NWS Cleveland, OH

Home | Current Version | Previous Version | Graphics & Text | Print | Product List | Glossary On
Versions: 1 2 3 4 5 6 7 8 9 10 11 12 13 14 15 16 17 18 19 20 21 22 23 24 25 26 27 28 29 30 31 32 33 34 35 36 37 38 39 40 41 42 43 44 45 46 47 48 49 50
000
ASUS41 KCLE 010610
RWRCLE
OHIO REGIONAL WEATHER ROUNDUP
NATIONAL WEATHER SERVICE WILMINGTON, OH
200 AM EDT MON SEP 01 2014

NOTE: "FAIR" INDICATES FEW OR NO CLOUDS BELOW 12,000 FEET WITH NO
SIGNIFICANT WEATHER AND/OR OBSTRUCTIONS TO VISIBILITY.

OHZ001>008-015>018-024>027-034-035-043-044-010700-
   NORTHWEST OHIO

CITY           SKY/WX    TMP DP  RH WIND       PRES   REMARKS
DEFIANCE       FAIR      72  67  84 S7        29.96R
FINDLAY        FAIR      70  67  90 S6        29.97R
TOLEDO EXPRESS FAIR      71  69  93 S5        29.95R
TOLEDO METCALF MOCLDY    72  68  87 SW7       29.96R
LIMA           FAIR      72  68  87 S7        29.98R
$$

OHZ009>014-019>023-028>033-038-089-010700-
   NORTHEAST OHIO

CITY           SKY/WX    TMP DP  RH WIND       PRES   REMARKS
CLE-HOPKINS    FAIR      72  69  90 S8        29.99S
CLE-LAKEFRONT  FAIR      73  69  87 S9        29.96R
CUY CO. ARPT   NOT AVBL
LORAIN-ELYRIA  FAIR      74  69  85 SW8       29.99R
ASHTABULA      CLOUDY    70  69  97 S6        30.00S
AKRON-CANTON   CLOUDY    72  68  87 SW8       30.01S
WOOSTER        CLOUDY    71  69  93 S5        30.01S
MANSFIELD      FAIR      69  69 100 S7        30.01R
YOUNGSTOWN     CLOUDY    71  69  93 SW6       30.01S FOG
$$

OHZ042-051>053-060>062-070>072-077>081-010700-
  SOUTHWEST OHIO

CITY           SKY/WX    TMP DP  RH WIND       PRES   REMARKS
CINC-COVINGTON CLOUDY    72  70  93 S5        30.01R
CINC-LUNKEN    CLOUDY    70  69  97 CALM      30.01R
HAMILTON       MOCLDY    69  68  96 CALM      30.01R
DAYTON         FAIR      72  69  90 SW6       30.01R
WRIGHT-PAT AFB FAIR      71  70  97 S6        30.00R
DAYTON GENERAL FAIR      69  68  96 S6        30.00R
WILMINGTON     FOG       70  69  97 SW7       30.01R VSB 1/2
$$

OHZ036-037-039>041-045>050-054>059-063>069-073>076-082>088-010700-
  CENTRAL AND SOUTHEAST OHIO

CITY           SKY/WX    TMP DP  RH WIND       PRES   REMARKS
COLUMBUS       CLOUDY    73  68  84 CALM      29.99S
OSU AIRPORT    CLOUDY    71  69  93 S6        30.00S
BOLTON FIELD   CLOUDY    69  69 100 S5        30.01R FOG
RICKENBACK AFB CLOUDY    70  65  85 S6        29.99S
NEWARK         MOCLDY    68  66  93 CALM      30.01R FOG
MARION         FAIR      70  68  93 S7        30.00S
LANCASTER      FAIR      69  67  93 S5        30.01S
ZANESVILLE     CLOUDY    71  68  90 S3        30.01S
NEW PHILLY     CLOUDY    71  70  96 S3        30.02S
$$


USA.gov is the U.S. government's official web portal to all federal, state and local government web resources and services.